This is the latest recevied weather packets stored in our database for station/object IW2HNF-3. If no packets are shown the sender has not sent any weather packets the latest 10 day(s).
| Time | Temp. | Humidity | Pressure | Rain* | Wind** | Luminosity | Snow |
|---|---|---|---|---|---|---|---|
| 1788440474 | 31.11° C | 43% | 1018.1 hPa | 0 mm | - | - | - |
| 1788439849 | 30.56° C | 43% | 1018.2 hPa | 0 mm | - | - | - |
| 1788439226 | 30.56° C | 43% | 1018.2 hPa | 0 mm | - | - | - |
| 1788438650 | 30.56° C | 44% | 1018.4 hPa | 0 mm | - | - | - |
| 1788438074 | 30° C | 45% | 1018.4 hPa | 0 mm | - | - | - |
| 1788437450 | 30° C | 46% | 1018.5 hPa | 0 mm | - | - | - |
| 1788436874 | 30° C | 47% | 1018.6 hPa | 0 mm | - | - | - |
| 1788436249 | 30° C | 48% | 1018.7 hPa | 0 mm | - | - | - |
| 1788435626 | 30.56° C | 48% | 1018.6 hPa | 0 mm | - | - | - |
| 1788435050 | 30° C | 48% | 1018.7 hPa | 0 mm | - | - | - |
| 1788434426 | 30° C | 49% | 1018.6 hPa | 0 mm | - | - | - |
| 1788433849 | 29.44° C | 51% | 1018.6 hPa | 0 mm | - | - | - |
| 1788433253 | 29.44° C | 52% | 1018.8 hPa | 0 mm | - | - | - |
| 1788432650 | 28.89° C | 52% | 1018.9 hPa | 0 mm | - | - | - |
| 1788432026 | 28.89° C | 52% | 1019.1 hPa | 0 mm | - | - | - |
| 1788431450 | 28.89° C | 52% | 1019.2 hPa | 0 mm | - | - | - |
| 1788430826 | 28.89° C | 52% | 1019.3 hPa | 0 mm | - | - | - |
| 1788430263 | 28.89° C | 52% | 1019.5 hPa | 0 mm | - | - | - |
| 1788429675 | 28.33° C | 51% | 1019.7 hPa | 0 mm | - | - | - |
| 1788429050 | 28.33° C | 51% | 1019.6 hPa | 0 mm | - | - | - |
| 1788428426 | 28.33° C | 51% | 1019.4 hPa | 0 mm | - | - | - |
| 1788427850 | 27.78° C | 51% | 1019.5 hPa | 0 mm | - | - | - |
| 1788427227 | 27.78° C | 51% | 1019.5 hPa | 0 mm | - | - | - |
| 1788426650 | 27.78° C | 51% | 1019.5 hPa | 0 mm | - | - | - |
| 1788426026 | 27.78° C | 51% | 1019.6 hPa | 0 mm | - | - | - |
* Rain latest hour (hover to see other rain measurements)
** Current wind speed in m/s (hover to see current wind gust speed)